TimeEST,TemperatureF,Dew PointF,Humidity,Sea Level PressureIn,VisibilityMPH,Wind Direction,Wind SpeedMPH,Gust SpeedMPH,PrecipitationIn,Events,Conditions,WindDirDegrees,DateUTC
12:51 AM,28.4,24.8,86,29.70,1.0,WNW,18.4,29.9,N/A,Snow,Light Snow,290,2012-12-22 05:51:00
1:07 AM,28.4,24.8,86,29.68,3.0,WNW,18.4,32.2,0.01,Snow,Light Snow,290,2012-12-22 06:07:00
1:24 AM,28.4,24.8,86,29.69,3.0,WNW,21.9,31.1,0.01,Snow,Light Snow,300,2012-12-22 06:24:00
1:51 AM,28.9,24.1,82,29.75,3.0,WNW,20.7,34.5,0.01,Snow,Light Snow,300,2012-12-22 06:51:00
2:51 AM,28.9,21.9,75,29.79,4.0,WNW,19.6,33.4,0.00,Snow,Light Snow,290,2012-12-22 07:51:00
3:04 AM,28.4,21.2,74,29.76,4.0,NW,20.7,32.2,0.00,Snow,Light Snow,310,2012-12-22 08:04:00
3:51 AM,28.4,21.2,74,29.83,5.0,WNW,21.9,31.1,N/A,Snow,Light Snow,300,2012-12-22 08:51:00
4:51 AM,28.4,19.4,69,29.82,5.0,WNW,18.4,29.9,N/A,Snow,Light Snow,300,2012-12-22 09:51:00
5:51 AM,28.9,19.0,67,29.89,6.0,WNW,12.7,23.0,0.00,Snow,Light Snow,300,2012-12-22 10:51:00
6:51 AM,30.0,19.0,64,29.91,7.0,NW,20.7,28.8,N/A,Snow,Light Snow,310,2012-12-22 11:51:00
7:51 AM,28.9,19.9,69,29.95,9.0,WNW,10.4,-,0.00,Snow,Light Snow,300,2012-12-22 12:51:00
8:51 AM,30.0,21.0,69,29.97,10.0,WNW,13.8,19.6,0.00,Snow,Light Snow,300,2012-12-22 13:51:00
9:42 AM,30.2,21.2,69,29.94,10.0,WNW,13.8,25.3,0.00,Snow,Light Snow,290,2012-12-22 14:42:00
9:51 AM,30.9,19.9,64,29.99,10.0,WNW,17.3,23.0,0.00,Snow,Light Snow,290,2012-12-22 14:51:00
10:51 AM,30.0,21.0,69,30.01,8.0,West,18.4,26.5,0.00,Snow,Light Snow,280,2012-12-22 15:51:00
11:13 AM,30.2,21.2,69,29.97,8.0,WNW,11.5,25.3,0.00,Snow,Light Snow,290,2012-12-22 16:13:00
11:51 AM,30.0,19.9,66,30.02,9.0,WNW,18.4,29.9,0.00,Snow,Light Snow,290,2012-12-22 16:51:00
12:51 PM,30.0,21.0,69,30.01,10.0,WNW,11.5,23.0,0.00,,Overcast,290,2012-12-22 17:51:00
1:51 PM,30.2,19.4,64,29.98,10.0,West,8.1,19.6,N/A,,Overcast,280,2012-12-22 18:51:00
2:51 PM,28.9,21.0,72,30.04,8.0,West,13.8,21.9,0.00,Snow,Light Snow,270,2012-12-22 19:51:00
3:51 PM,28.9,19.9,69,30.05,8.0,West,15.0,23.0,0.00,Snow,Light Snow,260,2012-12-22 20:51:00
4:51 PM,28.0,19.0,69,30.06,10.0,WSW,16.1,-,0.00,,Overcast,250,2012-12-22 21:51:00
5:51 PM,28.0,19.9,72,30.06,10.0,WSW,6.9,-,N/A,,Overcast,240,2012-12-22 22:51:00
6:51 PM,28.0,19.9,72,30.06,10.0,SW,6.9,-,N/A,,Overcast,230,2012-12-22 23:51:00
7:51 PM,28.9,21.0,72,30.06,10.0,SW,9.2,-,N/A,,Overcast,220,2012-12-23 00:51:00
8:51 PM,28.9,21.0,72,30.06,10.0,SW,15.0,-,N/A,,Overcast,230,2012-12-23 01:51:00
9:51 PM,28.9,21.0,72,30.07,10.0,SW,13.8,20.7,N/A,,Overcast,230,2012-12-23 02:51:00
10:51 PM,28.0,19.9,72,30.07,10.0,WSW,12.7,-,N/A,,Overcast,240,2012-12-23 03:51:00
11:51 PM,27.0,19.0,72,30.06,10.0,SW,12.7,-,N/A,,Overcast,230,2012-12-23 04:51:00